| Date | Time | Temp. (oF) | Dew Point (oF) | Rel. Hum. (%) | Press. (in.) | Wind Dir. | Wind Speed (mph) | Hourly Rainfall (in.) |
|
|---|---|---|---|---|---|---|---|---|---|
| 1 | 02/17 | 00:00 | 9 | 6 | 91 | 30.04 | ESE | 3 | 0.00 |
| 2 | 02/16 | 23:00 | 10 | 6 | 84 | 30.08 | NNW | 1 | 0.00 |
| 3 | 02/16 | 22:00 | 10 | 4 | 77 | 30.10 | NNW | 0 | 0.00 |
| 4 | 02/16 | 21:00 | 11 | -1 | 56 | 30.08 | NNE | 0 | 0.00 |
| 5 | 02/16 | 20:00 | 12 | -2 | 52 | 30.12 | NNE | 0 | 0.00 |
| 6 | 02/16 | 19:00 | 11 | -4 | 50 | 30.14 | NNW | 0 | 0.00 |
| 7 | 02/16 | 18:00 | 11 | -4 | 49 | 30.16 | NNE | 0 | 0.00 |
| 8 | 02/16 | 17:00 | 12 | -3 | 49 | 30.17 | NNW | 5 | 0.00 |
| 9 | 02/16 | 16:00 | 12 | -3 | 48 | 30.18 | NNW | 5 | 0.00 |
| 10 | 02/16 | 15:00 | 11 | -4 | 50 | 30.20 | NNW | 4 | 0.00 |
| 11 | 02/16 | 14:00 | 10 | -5 | 49 | 30.21 | N | 7 | 0.00 |
| 12 | 02/16 | 13:00 | 8 | -5 | 53 | 30.24 | NNW | 6 | 0.00 |
| 13 | 02/16 | 12:00 | 7 | -5 | 56 | 30.29 | N | 4 | 0.00 |
| 14 | 02/16 | 11:00 | 5 | -6 | 58 | 30.32 | NNW | 9 | 0.00 |
| 15 | 02/16 | 10:00 | 2 | -8 | 60 | 30.34 | NNW | 9 | 0.00 |
| 16 | 02/16 | 09:00 | 1 | -9 | 60 | 30.35 | NNW | 8 | 0.00 |
| 17 | 02/16 | 08:00 | -1 | -11 | 61 | 30.34 | NNW | 9 | 0.00 |
| 18 | 02/16 | 07:00 | -2 | -11 | 63 | 30.34 | NNW | 5 | 0.00 |
| 19 | 02/16 | 06:00 | -2 | -11 | 63 | 30.34 | NNW | 7 | 0.00 |
| 20 | 02/16 | 05:00 | -2 | -11 | 62 | 30.34 | N | 8 | 0.00 |
| 21 | 02/16 | 04:00 | -1 | -11 | 60 | 30.32 | NNW | 8 | 0.00 |
| 22 | 02/16 | 03:00 | 0 | -10 | 59 | 30.32 | NW | 6 | 0.00 |
| 23 | 02/16 | 02:00 | 1 | -11 | 56 | 30.29 | W | 4 | 0.00 |
| 24 | 02/16 | 01:00 | 2 | -11 | 53 | 30.29 | NNW | 7 | 0.00 |